Location: Alphen
(52.1351°N, 4.6549°E)
Time: 00:45:46
(UTC+00:00)

SMAP - Pass Details

Date: 27 January 2021
Orbit: 681 x 683 km, 98.1° (Epoch: 27 February)

Event Time Altitude Azimuth Distance (km) Brightness Sun altitude
Rises 06:28:30 0° 13° (NNE) 3,059 6.4 -9.3°
Reaches altitude 10° 06:30:45 10° 11° (N) 2,139 5.5 -9.0°
Maximum altitude 06:35:24 71° 288° (WNW) 727 3.0 -8.3°
Drops below altitude 10° 06:40:01 10° 205° (SSW) 2,122 5.6 -7.7°
Sets 06:42:15 0° 203° (SSW) 3,033 6.4 -7.3°
